Theta_e
304 297 294 295 298 300 302 301 300 300 300 299 298 296 295 295 296 299 299 301 303 296 296 297 297 297 298 299 301 302 303 303 303 303 303 304 305 306 306 305 306 307 306 311 307 307 307 307 307 307 307 307 307 307 307 307 308 309 309 311 311 313 313 314 315 316 317 317 317 318 317 317 318 318 319 319 320 320 319 319 318 315 315 315 314 313
301 296 297 299 301 302 302 302 301 300 300 297 296 295 294 296 293 298 298 301 302 295 295 297 296 296 298 299 301 303 303 302 303 303 303 304 305 306 306 305 305 306 307 307 306 305 305 305 305 305 305 305 303 304 304 305 306 307 308 308 310 312 311 312 313 315 316 316 316 316 316 317 317 317 316 316 317 318 318 317 316 314 314 314 312 311
295 294 298 301 303 303 302 300 300 298 296 297 295 295 294 294 297 299 300 301 298 295 294 297 294 295 297 299 302 302 303 304 304 305 305 304 305 304 304 304 304 304 303 304 304 304 303 303 303 302 302 303 303 303 304 304 304 305 306 308 309 310 310 310 311 312 313 315 316 316 315 316 315 317 317 316 316 316 315 315 314 313 313 312 311 310
294 297 300 303 303 301 300 299 297 297 297 295 295 293 292 296 294 292 298 297 298 296 294 296 293 295 298 301 302 304 303 304 306 306 306 306 303 302 302 302 302 302 302 301 301 301 301 301 300 300 300 301 302 302 302 303 303 304 304 306 307 308 309 309 310 309 312 313 314 315 315 314 314 312 313 313 313 313 312 311 311 312 312 311 310 309
297 302 303 302 302 300 297 298 297 295 294 297 296 295 294 295 296 296 295 298 298 299 299 296 295 297 301 300 300 302 304 304 305 304 304 304 305 304 303 302 302 301 300 300 300 300 300 299 299 299 299 300 299 300 301 302 302 302 303 304 306 306 307 308 308 309 309 311 311 312 311 310 310 309 308 308 308 309 309 309 309 309 310 310 309 309
297 302 302 299 299 298 297 295 297 297 293 295 298 297 297 298 296 296 297 295 293 294 294 295 289 292 298 299 299 302 303 303 301 300 299 300 301 301 299 300 301 301 300 298 298 298 298 298 298 298 298 298 298 298 299 301 302 302 302 303 304 305 306 305 307 307 307 308 307 307 306 305 305 305 306 305 305 306 306 306 309 309 309 309 308 308
299 300 300 299 299 298 297 296 298 298 294 293 295 300 299 297 296 295 295 294 289 288 295 296 288 286 297 297 300 301 301 302 299 298 298 299 299 299 298 299 298 298 298 298 298 297 297 297 297 296 296 297 297 297 299 300 300 301 301 302 303 303 304 304 305 306 306 306 306 306 306 306 305 304 306 307 308 307 307 308 307 307 307 307 307 307
299 298 297 297 297 297 296 294 298 298 295 292 298 298 298 296 295 295 294 293 291 296 297 295 293 289 289 296 300 300 300 299 297 297 297 298 297 298 298 297 297 297 297 297 296 296 296 296 296 295 296 296 296 298 299 299 299 299 299 299 300 301 301 302 303 304 305 304 305 305 305 304 304 304 304 305 305 306 305 305 305 305 305 305 305 305
297 296 296 296 295 295 295 298 302 300 296 295 296 298 296 295 295 294 293 292 293 291 288 292 295 289 289 296 300 300 297 298 296 296 296 297 297 297 297 297 297 296 296 295 295 295 295 295 295 295 295 296 297 297 297 298 298 298 298 298 298 299 299 300 301 302 303 303 303 303 303 303 304 304 304 304 305 304 304 303 303 303 303 303 304 304
298 297 299 299 297 294 299 296 298 299 295 299 297 297 296 296 295 294 291 291 291 289 285 291 294 287 289 297 297 298 296 296 295 295 296 296 296 296 296 296 296 296 296 295 295 295 295 295 295 295 296 295 296 296 298 298 298 297 298 297 297 297 298 298 299 300 301 302 302 302 302 302 302 303 303 304 303 303 303 302 302 302 302 302 302 302
297 296 298 297 297 299 295 294 296 298 297 296 298 295 295 295 294 293 292 291 289 284 288 294 294 292 286 294 296 296 296 298 296 295 296 296 296 295 295 294 295 294 294 294 294 294 294 295 295 295 294 295 295 296 296 296 296 296 296 296 296 296 297 297 298 298 299 300 301 301 301 301 301 301 302 301 302 302 302 301 301 301 301 301 301 301
297 296 295 297 300 298 298 295 294 296 296 296 293 292 292 292 293 290 289 291 285 284 291 294 295 294 285 291 297 298 298 298 298 295 295 295 294 294 294 293 294 293 293 293 293 293 293 294 294 294 293 293 294 294 294 295 295 295 295 296 295 295 296 296 296 297 297 297 298 298 299 299 300 300 300 299 299 300 300 301 301 301 301 300 301 300
292 294 298 299 298 297 296 294 295 295 294 294 292 291 287 286 288 285 287 283 285 285 289 290 294 290 289 293 296 299 298 298 299 298 296 294 293 293 293 293 293 293 292 292 292 292 292 292 292 292 292 293 292 292 293 293 294 294 294 294 294 294 295 296 296 296 296 296 296 296 296 297 298 298 299 299 299 300 299 300 300 300 299 300 299 299
294 298 297 298 296 297 298 292 292 290 291 292 290 289 286 283 283 280 284 287 286 289 289 290 292 287 292 295 299 299 297 297 297 297 297 295 293 292 292 292 292 292 292 292 292 292 292 292 292 292 292 292 292 292 292 293 293 293 293 293 293 293 294 295 295 295 295 295 295 295 295 296 296 296 296 297 297 298 298 299 299 299 299 299 299 300
286 287 294 296 295 299 297 297 298 297 293 293 297 294 289 288 284 279 282 280 282 285 287 289 287 285 286 291 299 297 295 296 295 295 294 293 293 292 292 292 291 291 291 292 291 291 291 291 292 292 292 292 292 292 292 292 292 293 292 292 292 292 293 293 294 294 294 295 295 295 295 295 295 295 295 295 296 296 296 297 297 298 298 298 299 299
290 290 296 300 297 298 296 300 300 298 296 297 296 297 290 288 294 284 286 286 285 285 285 286 286 291 291 296 297 296 295 294 294 293 293 292 292 292 291 290 290 290 290 291 290 290 291 291 292 291 291 291 291 291 291 291 291 291 292 292 292 292 292 292 293 293 293 294 294 294 294 294 294 294 294 294 295 295 295 296 296 296 296 297 298 299
290 286 296 299 296 297 297 297 298 300 287 292 292 288 292 296 293 288 288 290 288 286 282 289 288 291 297 298 296 294 293 292 293 292 292 291 291 290 289 289 289 289 289 289 289 289 290 290 290 291 290 291 291 291 290 290 290 290 290 291 291 291 291 292 292 292 293 293 293 293 293 293 293 293 293 293 293 293 294 295 295 295 295 296 296 297
287 288 297 296 295 295 294 296 297 297 298 292 286 291 294 297 295 290 282 285 283 280 282 288 284 286 288 285 293 293 290 291 291 290 290 290 290 288 288 288 288 288 288 288 288 288 289 289 289 289 290 290 290 290 291 291 291 291 290 290 290 290 290 291 291 291 292 292 292 292 292 292 292 293 293 293 292 293 293 293 293 294 294 294 296 296
295 286 293 296 298 294 294 295 294 298 297 293 291 296 289 285 284 289 285 277 278 278 280 285 287 287 288 288 293 291 290 289 290 290 290 289 289 288 288 288 288 288 288 288 287 287 287 287 287 288 288 289 289 290 290 290 290 290 290 290 290 289 290 290 291 291 291 292 292 292 291 291 291 292 292 292 293 293 292 292 292 292 293 293 294 294
296 286 288 294 295 295 294 294 287 291 293 294 294 291 297 290 286 285 286 285 285 278 279 280 285 282 292 292 294 294 291 291 290 289 288 288 288 288 288 288 287 287 287 287 287 287 287 287 287 287 287 288 288 288 289 289 289 288 289 289 289 289 289 289 290 290 290 291 291 291 290 290 291 291 291 291 291 291 291 291 291 291 291 292 292 292
290 296 283 292 294 295 288 293 289 292 288 288 288 287 291 288 291 290 288 285 283 280 280 279 278 284 292 295 293 292 292 292 291 289 289 288 288 287 287 287 287 287 287 287 287 286 287 286 287 287 289 289 289 289 289 289 288 288 288 287 287 286 287 287 289 289 289 289 289 289 289 289 289 289 290 290 291 289 290 290 291 291 291 291 291 292
289 290 285 289 289 289 291 297 297 296 295 293 291 288 290 287 285 281 279 289 286 283 279 279 277 285 293 294 294 293 293 292 292 290 288 287 287 287 287 286 286 286 286 286 286 286 286 288 289 289 289 290 290 290 290 290 290 289 289 289 287 287 287 287 287 288 288 289 288 288 288 288 289 289 289 288 289 289 289 289 290 290 290 290 291 291
296 292 288 285 288 289 293 297 299 298 298 295 294 290 293 291 289 284 277 281 286 285 285 284 280 283 292 292 293 293 292 291 291 290 288 287 287 286 286 286 286 286 286 286 286 286 287 289 288 287 288 288 289 289 289 289 288 288 288 288 288 287 287 288 288 288 288 288 287 287 288 288 287 287 287 287 288 287 288 288 289 289 289 289 290 291
294 288 285 286 291 293 295 298 298 297 296 293 294 294 290 288 289 286 285 286 282 283 282 282 279 285 291 292 291 291 290 290 291 290 288 288 287 286 286 286 286 286 286 287 287 287 287 289 290 287 287 288 288 289 289 289 288 288 288 288 287 287 287 288 288 288 288 288 287 288 287 287 287 286 285 286 287 286 287 287 288 288 288 289 289 288
287 288 287 282 282 284 287 291 292 293 294 289 288 291 290 290 290 290 287 288 281 282 282 280 275 282 290 290 291 290 290 289 289 290 289 287 287 286 287 286 286 286 286 286 286 286 286 286 286 286 287 287 287 288 289 289 288 288 288 288 287 286 287 287 288 287 288 287 287 287 287 287 286 286 286 286 286 286 287 286 286 287 287 287 287 288
289 287 285 279 276 274 274 276 280 283 286 289 289 289 290 289 289 286 281 283 278 283 284 280 279 286 290 291 291 291 290 289 289 289 289 289 287 287 286 286 285 285 285 285 285 285 285 285 286 286 286 286 286 287 287 288 288 288 288 287 287 286 286 286 287 286 287 286 286 286 286 287 287 286 285 285 286 287 287 286 286 286 286 286 286 287
288 288 287 284 282 280 282 285 289 290 287 283 286 288 288 290 289 287 285 281 278 281 280 282 283 283 286 289 290 291 288 289 287 287 286 286 286 286 286 285 285 285 284 284 285 285 285 285 285 286 286 286 286 286 286 287 287 287 287 287 287 287 286 286 286 286 285 286 285 285 285 286 286 286 286 286 285 286 287 287 287 286 285 285 285 285
288 285 286 286 285 286 287 287 288 289 285 286 285 285 287 287 287 285 282 279 285 281 276 284 285 282 284 288 289 289 289 290 290 289 288 287 287 286 286 285 285 284 285 285 284 284 284 285 285 285 285 285 286 286 286 286 287 287 287 286 287 287 286 286 285 285 285 285 285 285 285 285 286 286 286 286 286 286 286 286 286 286 286 286 285 285
286 282 286 286 284 287 287 287 288 287 286 286 285 285 284 285 285 282 282 285 284 279 276 282 284 281 284 286 288 288 289 290 290 289 288 287 286 286 285 284 284 284 284 283 284 284 284 284 284 285 285 285 285 285 285 286 286 287 287 287 286 286 286 286 285 284 284 284 284 284 284 285 285 286 286 285 285 285 286 286 286 285 285 285 285 286
287 282 284 285 282 283 285 285 286 285 284 284 284 284 284 284 283 283 283 284 283 281 283 282 283 282 284 285 287 289 290 288 287 287 286 285 285 285 285 284 284 285 284 283 283 284 284 284 284 285 285 285 285 285 285 285 285 286 286 286 286 286 286 285 284 283 283 283 283 284 284 284 284 284 284 284 284 284 285 285 286 285 284 284 284 285
286 280 285 281 280 280 284 285 286 284 283 281 283 284 284 283 283 283 283 283 283 282 283 283 281 281 286 288 286 286 287 287 285 283 284 284 284 284 284 284 284 285 285 284 284 283 284 284 285 285 285 285 285 285 285 285 286 286 286 286 286 285 285 285 283 283 283 282 283 283 283 283 283 283 283 283 283 282 283 285 285 284 284 284 284 283
286 281 284 281 278 277 281 281 282 282 281 279 279 280 281 281 279 281 280 283 282 279 281 281 279 280 285 284 285 285 284 283 282 283 283 283 283 282 282 282 283 284 285 285 284 283 283 283 284 284 284 284 285 285 285 285 285 285 285 285 285 285 285 284 283 282 282 282 283 283 282 282 282 282 282 282 281 281 282 283 284 283 283 282 282 282
284 281 279 279 275 275 280 281 279 278 276 273 275 278 281 281 282 282 283 284 284 284 279 277 278 284 283 286 283 284 282 281 281 282 282 281 282 282 282 282 282 283 284 285 284 284 284 284 284 284 284 285 285 285 285 285 285 284 285 285 285 285 284 283 282 282 282 282 282 282 282 282 281 281 281 281 281 280 280 281 282 282 281 281 281 281
283 281 278 280 273 274 278 278 277 273 267 269 281 283 283 280 281 279 279 281 283 284 281 283 281 282 282 282 281 280 280 279 280 281 283 282 281 282 282 283 283 284 285 286 286 284 284 284 284 285 285 285 286 286 286 286 285 285 286 285 285 284 283 283 282 282 281 281 281 281 281 281 281 280 280 281 280 279 279 279 280 281 281 280 279 279
281 281 279 280 275 273 277 275 271 266 268 279 283 284 285 283 282 280 280 281 282 283 283 282 284 283 282 282 280 280 280 281 281 281 282 283 283 283 282 282 283 283 283 284 285 285 284 284 284 284 285 285 285 285 286 285 285 285 284 284 283 283 282 282 281 281 281 280 281 281 281 280 280 280 280 280 279 278 277 278 278 279 279 278 278 277
279 279 279 277 278 277 274 273 266 266 276 276 281 282 284 283 282 280 278 281 281 282 283 282 283 284 284 281 280 280 280 280 281 282 283 284 284 283 283 282 282 283 283 284 284 285 285 284 284 284 284 286 285 285 285 284 284 283 282 283 282 281 281 281 281 280 280 280 280 280 280 280 279 279 279 279 278 277 276 277 277 277 278 277 276 276
282 280 279 274 278 270 273 272 271 277 276 278 278 280 281 278 279 278 273 278 283 282 283 282 283 283 281 280 280 280 281 282 280 281 284 284 285 285 283 283 283 283 284 285 285 285 286 286 285 285 285 284 284 283 283 283 282 281 281 280 279 279 279 279 279 279 280 279 279 279 279 279 278 278 278 278 277 276 275 275 275 276 277 275 274 274
283 278 279 275 273 277 272 270 271 270 267 273 278 282 283 282 282 281 279 274 280 278 282 282 281 282 279 279 279 280 282 278 275 278 283 283 285 285 284 285 284 284 284 284 284 285 285 286 285 284 283 282 282 282 282 282 281 280 279 278 278 278 278 278 278 278 278 278 278 278 278 278 278 277 277 277 275 275 275 275 275 275 275 273 272 272
280 282 279 276 273 274 271 269 268 266 269 277 274 278 279 281 280 281 277 271 278 275 278 278 277 278 278 278 278 280 278 274 274 278 282 283 283 283 283 283 284 284 284 284 284 283 283 282 282 282 282 281 280 280 280 280 279 278 277 276 276 276 276 276 276 277 277 277 277 277 277 277 277 276 276 275 274 274 273 273 273 274 273 272 272 271
275 276 277 273 272 272 271 269 267 271 270 275 276 278 280 282 283 278 267 268 277 278 280 278 276 276 278 279 279 278 276 273 275 279 283 283 283 283 283 283 283 283 284 284 284 282 282 282 281 280 280 279 279 280 279 278 278 276 275 275 275 274 274 274 275 276 275 275 276 276 275 275 274 274 274 273 273 273 272 273 272 272 271 271 271 270
273 273 275 270 272 272 272 270 272 272 279 279 280 282 282 284 279 269 264 273 278 280 281 281 279 279 279 279 279 276 278 280 280 282 283 283 283 283 284 284 284 284 283 283 281 282 281 280 279 278 278 278 278 278 277 276 275 274 273 273 272 272 273 273 274 273 273 274 274 274 273 273 273 272 272 272 271 271 271 271 271 270 269 269 269 269
271 272 273 274 271 270 271 269 269 272 278 279 282 283 283 278 268 268 275 279 280 280 281 280 279 280 280 279 279 279 280 282 282 282 282 282 282 283 283 283 283 283 282 282 282 280 279 278 278 277 277 277 276 275 274 274 272 271 271 270 270 271 272 272 272 271 271 271 271 271 271 270 270 270 269 270 270 269 269 269 269 269 268 268 268 267
272 270 269 270 272 273 271 268 267 263 276 280 280 279 281 273 274 280 279 280 281 281 281 280 280 280 281 279 280 281 281 281 281 281 282 282 282 282 282 282 281 280 279 279 279 279 277 276 275 275 274 274 273 273 272 271 269 269 269 268 269 270 270 269 269 268 268 268 268 267 266 266 266 266 267 267 267 267 267 267 267 267 267 266 266 266
278 271 271 272 276 269 268 266 266 274 278 282 279 274 278 280 283 283 282 281 283 282 281 281 281 281 281 280 280 280 280 280 281 281 282 282 282 282 282 281 280 279 279 278 278 277 275 273 273 272 271 271 271 271 270 269 267 267 266 266 268 267 267 266 266 265 265 264 264 263 263 263 263 264 264 264 264 264 264 264 265 265 265 265 265 265
277 273 275 271 276 273 271 274 278 281 281 283 282 282 282 284 284 284 283 282 281 281 283 281 281 282 282 281 280 280 280 280 280 281 281 281 281 280 279 278 278 277 277 276 275 274 272 270 269 269 268 269 269 268 268 267 265 264 264 265 266 265 264 264 263 262 262 261 261 261 261 261 261 261 262 262 262 262 262 262 263 263 264 264 264 264
280 280 281 277 275 279 280 280 281 281 281 281 283 284 283 283 284 284 283 281 282 282 283 281 281 281 281 282 280 280 280 280 280 280 280 280 279 278 278 277 277 277 276 274 273 271 269 269 267 266 266 266 266 266 266 265 264 262 263 264 264 263 263 262 261 260 260 260 260 260 260 260 260 260 261 261 262 262 262 262 262 262 262 263 263 263
279 280 277 274 277 274 269 279 278 279 281 281 282 283 284 284 284 284 282 282 282 283 282 283 282 281 281 281 280 279 279 280 279 279 279 278 277 277 276 275 275 274 272 271 270 269 267 266 265 264 264 263 264 264 264 263 263 263 263 262 263 262 262 261 260 259 259 259 259 260 260 259 259 260 260 261 261 261 262 262 262 262 262 262 262 262
274 282 276 276 276 274 273 277 279 281 281 282 282 281 281 282 283 283 284 283 283 283 283 282 281 280 280 279 279 279 279 279 277 277 276 276 275 275 274 274 273 271 270 269 268 267 265 264 263 262 262 261 262 263 262 262 262 262 262 262 262 261 261 260 259 259 259 259 259 259 259 259 260 260 260 260 260 260 260 261 261 261 260 260 261 261
279 281 273 276 274 277 279 279 279 280 280 281 282 282 283 283 283 283 283 283 283 282 281 280 280 279 279 279 278 277 276 276 276 275 274 274 273 273 272 271 270 269 268 267 266 265 263 262 261 261 261 260 262 262 261 261 261 262 262 261 261 260 259 259 259 259 258 259 259 258 259 259 259 260 259 260 260 260 261 260 260 260 260 262 262 261
278 274 278 276 272 272 273 276 279 274 274 279 281 282 282 283 283 283 283 282 282 281 280 278 277 277 276 276 275 275 273 274 274 273 272 272 271 271 270 269 268 266 266 265 265 263 262 262 261 260 260 260 261 261 261 261 261 261 261 261 260 260 259 258 258 258 258 258 258 258 259 259 259 259 259 259 259 259 260 263 266 265 262 262 265 268
277 277 277 274 273 272 278 280 281 280 279 280 281 283 283 283 283 282 281 281 281 281 279 278 276 274 274 274 274 272 272 272 272 271 270 269 269 269 268 267 265 264 264 264 262 261 261 260 260 259 259 260 261 260 260 260 260 260 260 260 260 260 259 258 258 258 257 258 258 258 258 258 258 259 259 259 259 259 259 259 261 266 268 268 267 268
Wind_Speed
6 8 8 8 11 12 12 14 16 16 16 16 11 13 14 14 15 14 15 13 9 6 10 11 15 16 14 14 15 17 18 19 19 16 15 14 12 9 4 4 6 7 8 7 12 13 14 14 13 12 12 12 12 12 11 9 7 4 2 1 1 1 3 4 5 5 6 6 6 6 7 7 6 7 7 7 7 7 6 7 7 7 8 8 9 9
3 9 9 11 15 14 15 10 10 12 12 14 14 13 14 12 15 14 15 14 10 3 9 12 14 15 17 18 20 19 15 18 16 15 15 12 8 5 4 7 7 8 9 13 13 14 14 15 16 13 12 13 14 13 13 12 10 8 6 4 2 2 3 4 4 4 4 5 5 5 5 5 5 5 6 6 6 6 5 6 6 6 8 8 9 9
7 10 10 15 15 14 9 6 9 10 14 14 11 11 12 12 14 15 16 9 3 4 10 11 15 14 17 20 20 16 12 11 13 15 11 8 6 4 5 7 9 11 11 13 14 14 14 16 17 14 13 13 13 13 13 12 12 11 9 7 4 2 1 1 3 3 3 3 4 4 3 3 3 3 3 3 3 4 5 4 4 5 6 7 7 8
9 8 16 15 12 12 12 9 9 12 12 10 9 10 11 10 10 9 3 6 4 2 10 12 15 13 15 18 16 11 6 9 13 10 7 9 7 8 10 10 11 12 12 14 15 15 15 15 15 15 15 14 12 12 13 13 13 10 10 9 8 5 3 2 1 2 2 2 2 2 2 1 2 1 1 1 1 2 3 5 5 5 6 7 7 8
13 8 4 7 9 10 12 11 10 10 11 9 11 10 12 13 11 11 11 12 12 14 8 8 11 10 8 4 2 5 6 12 7 10 12 11 9 11 12 14 14 13 13 13 15 16 16 17 17 16 14 13 13 13 13 13 12 9 12 11 9 7 7 5 5 2 2 0 1 2 2 1 1 0 1 2 4 4 5 5 5 6 7 7 8 8
14 12 4 4 6 7 7 10 13 10 10 10 11 13 15 13 15 13 12 10 7 6 7 9 10 5 2 6 12 7 9 9 10 13 14 14 12 12 14 13 12 12 14 15 14 14 14 14 14 15 16 16 15 15 14 12 12 12 12 12 11 9 9 9 7 5 3 2 2 2 2 3 3 4 4 5 5 5 5 6 6 6 7 8 8 8
7 4 0 6 7 7 8 10 13 8 10 8 6 2 5 8 9 10 10 5 6 6 1 6 6 11 5 10 5 5 12 4 12 14 13 12 12 12 12 11 11 12 12 13 14 13 14 15 15 17 17 16 16 15 13 11 11 14 14 14 12 10 9 9 8 7 5 3 3 3 3 4 4 4 3 3 3 3 3 3 5 5 6 8 8 9
7 4 2 1 6 7 7 9 10 11 8 8 5 3 3 6 7 6 4 5 9 8 12 7 8 8 11 7 6 10 11 6 12 13 12 11 12 11 11 12 11 12 12 11 13 14 13 14 15 16 16 15 14 11 10 10 11 15 17 16 14 11 11 10 9 8 7 6 5 4 4 4 4 4 5 5 3 2 2 2 3 4 4 6 7 8
3 4 3 5 7 6 9 7 4 5 7 3 4 6 5 5 6 4 6 7 7 10 9 6 8 5 6 2 5 8 3 6 10 12 11 11 10 10 12 11 11 11 12 13 12 14 14 14 14 12 13 13 12 11 11 11 12 14 15 15 14 13 12 12 13 10 8 7 6 6 5 5 5 5 4 5 4 3 2 3 3 4 4 5 7 8
1 1 4 5 5 6 4 4 3 3 8 3 1 2 0 2 2 6 6 8 8 7 12 5 10 5 10 5 4 2 2 7 10 12 11 11 9 8 9 11 11 9 10 11 12 11 11 11 11 11 11 14 13 11 10 10 12 15 14 16 16 15 12 12 13 12 11 9 7 6 6 6 6 6 6 5 5 4 3 3 3 4 4 4 5 7
1 2 3 2 7 3 5 4 4 3 2 2 0 4 6 6 7 6 6 6 6 10 9 8 14 7 7 3 2 2 1 1 10 9 11 11 10 10 10 10 8 8 10 10 11 11 10 10 11 12 14 12 11 9 11 13 15 15 15 15 17 16 13 14 13 13 12 10 9 8 8 7 7 7 6 6 6 6 6 5 5 4 4 5 5 5
7 4 2 4 4 4 3 4 2 2 1 1 3 4 6 8 6 4 4 4 5 11 3 3 10 11 5 2 1 4 7 7 2 11 12 12 10 8 8 8 9 9 9 10 10 10 10 10 11 10 10 10 11 13 14 14 15 15 15 15 16 16 16 14 14 14 13 11 11 10 9 8 8 7 6 7 7 7 8 7 6 5 4 5 5 6
4 11 9 4 3 9 5 6 3 3 4 4 4 4 5 6 5 7 4 5 6 8 3 3 4 6 12 11 12 5 7 8 4 7 11 13 12 11 10 9 7 7 9 10 9 9 9 9 9 10 10 10 13 14 16 16 14 13 14 15 15 16 15 14 13 14 13 13 12 11 11 9 8 8 8 7 7 7 7 7 7 7 6 5 5 5
5 5 8 7 2 7 8 6 3 3 7 6 5 4 3 7 7 11 8 8 11 1 3 3 2 9 10 11 13 15 7 9 11 12 11 12 12 11 10 8 7 8 9 9 9 8 8 9 9 9 9 10 12 14 14 13 13 12 12 13 13 13 13 12 12 12 12 12 11 11 10 9 8 8 7 7 7 7 7 7 8 7 7 7 7 7
10 8 6 9 3 9 10 10 6 7 7 9 6 6 6 7 5 9 5 10 9 9 2 4 1 4 4 5 9 11 14 12 11 12 14 12 11 11 9 8 9 9 9 8 8 9 9 9 8 7 8 10 12 13 12 11 11 10 11 11 13 13 13 13 12 11 12 10 10 10 9 8 8 7 7 7 7 7 8 8 8 8 8 8 8 8
8 10 2 4 4 8 9 8 3 2 5 5 3 1 3 7 4 10 6 8 7 9 8 3 5 4 8 8 8 11 13 13 12 13 11 10 9 8 8 8 8 8 7 7 7 7 8 7 6 7 9 10 11 12 11 13 11 11 11 11 11 12 11 11 11 11 10 10 9 10 10 9 8 7 6 6 6 7 7 7 7 8 8 8 9 9
2 8 5 2 3 4 2 4 2 0 4 3 3 4 4 5 4 6 5 9 8 8 14 7 12 13 9 11 12 13 12 11 9 10 9 9 8 8 8 7 7 6 6 6 6 5 6 7 8 9 11 11 11 11 11 11 10 10 10 10 12 12 12 12 11 10 9 8 9 10 10 10 9 9 8 7 7 7 7 6 7 7 8 8 8 8
7 10 1 4 9 4 3 3 3 1 2 5 3 1 2 2 3 3 11 8 10 13 10 6 13 13 8 7 8 8 11 8 8 8 9 8 7 7 7 6 5 5 5 5 5 5 7 8 10 11 10 11 11 10 9 9 8 8 8 10 11 11 12 12 11 11 10 11 10 10 10 10 9 8 7 8 7 6 6 6 7 7 7 8 8 8
2 7 8 4 2 3 2 2 5 5 1 4 1 4 2 4 7 7 3 7 11 13 11 12 16 15 15 15 5 11 11 10 7 7 6 7 6 6 6 6 5 4 4 4 6 6 8 9 9 9 9 9 9 9 8 7 7 7 7 8 8 8 8 8 7 8 7 8 7 7 9 9 9 9 8 8 8 7 7 7 7 6 6 6 7 7
1 7 4 1 1 3 2 3 5 4 1 2 1 3 1 2 5 9 6 2 3 12 9 9 10 11 9 9 7 4 13 10 9 7 5 5 5 4 4 4 4 4 4 4 5 6 6 6 6 6 7 7 7 6 6 5 5 7 8 8 8 7 7 7 6 5 6 6 6 6 6 6 7 7 8 8 9 9 9 9 9 8 7 7 6 6
2 2 9 3 2 2 5 6 7 8 5 4 5 7 4 3 2 3 3 4 6 10 9 10 13 9 6 6 4 8 8 9 8 7 6 5 5 4 4 3 2 3 3 3 3 3 2 2 2 3 1 2 2 1 2 2 3 4 4 4 4 4 5 6 6 5 5 5 6 7 8 7 6 8 8 9 8 8 7 7 7 8 7 7 7 7
2 5 11 9 9 8 11 7 7 9 12 9 6 7 7 6 5 8 10 6 5 8 10 10 14 7 2 5 4 7 7 7 8 8 7 6 4 4 4 3 3 3 3 3 3 2 2 1 1 1 1 1 1 1 1 2 1 2 2 2 3 3 5 6 7 7 7 6 6 6 7 7 7 8 8 9 8 8 7 7 7 7 8 7 7 7
2 3 6 10 10 12 15 16 7 3 4 9 9 11 11 10 4 8 14 9 8 6 3 7 11 9 3 3 5 6 6 7 7 7 7 6 4 3 3 2 1 1 1 2 2 2 1 1 2 2 2 2 3 3 3 3 3 4 5 5 6 8 9 9 8 8 7 7 7 7 6 6 6 7 7 7 7 8 8 8 8 7 8 8 8 9
2 3 7 10 11 11 13 13 3 2 2 6 7 10 4 10 7 8 7 5 4 5 8 8 13 4 4 4 5 7 8 6 4 5 7 5 4 4 3 3 2 2 1 1 0 1 1 1 1 1 2 3 3 4 5 5 6 6 7 7 7 9 9 9 9 9 9 9 9 9 8 8 6 5 6 6 6 7 7 6 6 7 7 8 8 9
4 3 6 4 5 6 8 8 4 5 2 1 2 3 3 3 6 6 4 3 7 7 12 10 11 5 2 3 3 5 6 6 6 5 6 6 6 5 4 3 2 2 2 3 4 4 4 4 5 5 5 5 6 6 7 7 7 7 7 7 7 7 8 8 8 9 9 9 10 10 9 9 8 8 8 7 6 6 6 6 7 7 8 8 8 8
4 5 4 8 7 8 8 9 8 3 1 1 1 6 6 8 7 4 7 5 10 3 11 6 6 5 4 5 6 7 6 6 5 5 4 4 5 4 3 2 1 1 2 4 4 5 6 6 6 7 8 7 7 7 7 7 7 8 8 9 8 8 8 8 7 8 8 8 9 9 10 9 9 9 8 8 7 7 7 6 6 6 6 7 8 8
3 3 7 9 12 13 13 12 8 5 6 7 7 6 10 10 5 7 7 10 12 8 10 10 12 13 15 15 17 13 5 5 6 7 7 6 5 4 3 3 2 2 1 2 2 3 4 4 6 6 7 7 8 8 7 7 8 7 8 8 9 8 8 9 9 9 9 8 8 8 8 9 9 9 9 9 8 7 7 8 8 7 7 6 7 7
3 9 11 12 13 15 16 18 18 17 18 17 16 16 15 13 9 10 12 16 9 11 15 8 13 12 14 16 16 14 4 8 8 7 6 5 5 5 4 4 5 5 5 4 4 4 4 5 4 5 5 6 6 6 6 7 7 7 7 7 7 7 6 6 7 8 9 9 8 8 8 8 8 8 8 8 9 9 9 8 7 8 8 8 7 6
4 9 9 13 12 16 16 18 18 16 15 16 16 16 17 17 15 17 16 15 14 14 18 15 20 19 17 18 19 18 13 3 4 5 3 2 2 3 4 5 6 6 5 5 5 4 5 4 5 5 5 5 6 6 7 6 6 6 6 7 7 7 6 7 7 8 8 9 9 9 8 8 8 7 7 8 8 9 9 9 9 9 8 8 9 8
3 10 12 13 13 11 16 17 16 17 17 17 19 20 21 22 24 22 20 19 19 18 20 22 23 25 21 22 23 12 4 3 4 4 3 3 3 4 5 5 6 7 6 5 5 5 5 5 6 6 6 7 7 7 7 7 7 6 7 7 7 7 7 7 8 9 9 9 9 9 9 10 9 9 8 8 8 9 10 10 9 9 10 12 10 9
6 7 5 4 5 8 13 14 14 13 13 15 14 16 20 22 22 19 21 24 24 22 23 25 24 23 18 9 7 7 4 4 2 3 2 2 2 3 4 6 7 7 7 6 5 6 6 6 6 6 6 6 7 7 7 7 7 7 7 7 7 7 7 7 8 9 9 10 10 9 9 9 9 9 9 9 8 8 8 11 9 9 9 9 9 12
4 8 3 1 8 12 8 10 8 6 11 12 12 16 20 20 20 17 17 16 17 19 20 20 18 17 8 7 3 5 3 2 1 2 2 3 2 4 5 7 7 7 8 7 6 6 6 6 6 6 7 7 7 7 7 6 6 7 8 8 8 7 6 6 8 9 9 10 10 10 10 10 10 11 9 7 7 8 8 9 9 9 10 11 11 10
2 2 3 5 8 7 8 7 9 3 3 10 15 20 19 19 18 19 19 20 21 20 18 15 15 3 3 1 0 2 5 3 2 3 4 4 5 5 7 8 8 9 8 8 8 7 7 7 7 7 7 7 7 7 7 7 7 7 7 7 7 7 7 8 8 9 10 10 10 11 10 11 10 9 9 7 7 7 8 9 11 10 10 10 9 11
4 6 8 6 5 3 6 5 2 2 10 13 1 2 8 13 12 15 15 16 17 16 7 3 1 3 2 2 1 1 4 3 6 5 5 4 5 7 7 8 8 9 10 9 9 8 7 6 6 7 8 8 8 8 7 7 7 8 7 7 6 7 7 8 8 9 10 10 10 10 10 11 10 11 11 9 8 8 10 10 10 10 9 9 9 10
9 8 11 7 7 6 6 3 6 12 13 2 4 6 6 5 6 13 17 19 17 13 5 10 10 3 3 3 4 4 4 6 6 8 6 7 5 6 8 8 9 10 11 11 11 10 8 8 8 9 9 9 9 8 7 7 7 7 7 7 8 8 10 10 11 10 10 11 12 11 10 10 10 11 11 10 9 9 11 12 11 11 8 7 9 10
10 11 9 10 11 10 10 10 12 11 2 3 2 3 4 5 10 11 14 14 15 15 14 11 9 5 3 2 5 3 5 7 7 8 10 9 8 7 7 7 8 9 11 11 12 13 12 10 10 10 10 8 7 7 7 8 8 8 8 8 9 10 9 10 10 13 11 10 11 10 12 10 11 11 11 10 7 9 12 13 13 13 9 7 8 9
13 8 8 11 6 13 10 13 18 9 15 12 13 12 9 7 7 6 8 6 3 2 5 4 3 4 3 4 5 6 6 6 7 9 9 10 7 5 5 7 8 9 10 11 12 13 14 13 12 10 8 7 8 8 8 8 8 8 8 9 8 9 10 11 11 12 12 11 12 12 12 12 11 12 11 10 10 12 13 13 15 13 7 9 10 11
13 11 7 10 8 10 13 13 13 12 14 8 0 3 8 6 5 3 4 5 3 3 2 3 2 6 2 3 5 5 2 5 7 7 6 4 1 3 5 5 7 9 10 11 12 13 14 12 10 10 9 10 10 9 9 9 9 9 8 10 10 10 11 11 12 12 12 13 12 13 11 10 11 12 12 12 13 13 12 12 12 13 8 9 12 13
4 9 10 11 10 9 13 13 12 11 8 4 3 3 2 4 3 2 4 9 1 3 4 6 4 1 2 4 4 3 3 6 7 6 5 4 5 6 7 8 9 10 11 11 12 12 9 9 9 10 10 10 12 12 11 10 9 9 9 10 12 11 11 11 13 13 12 14 13 12 12 11 11 13 13 13 13 13 15 15 14 12 9 10 11 12
3 5 6 9 12 11 10 12 13 4 4 2 2 1 1 2 4 4 12 10 2 5 6 2 1 2 3 5 6 4 6 8 8 8 8 9 8 8 9 11 12 12 11 12 9 9 10 10 9 10 11 11 12 12 11 9 8 8 10 12 12 11 11 12 13 13 14 15 15 12 10 11 13 15 15 15 15 14 14 13 12 12 11 11 11 12
4 2 7 11 9 11 15 12 9 8 7 4 5 1 7 2 1 5 12 4 4 5 7 3 3 5 6 6 6 6 7 8 10 11 10 9 10 10 10 10 11 11 9 8 7 8 7 8 8 9 11 10 10 10 9 8 9 10 11 12 12 12 13 13 14 14 14 14 14 14 14 13 13 15 16 15 15 15 15 14 13 14 15 14 13 14
2 2 4 8 12 11 11 13 12 11 6 3 6 4 7 2 6 9 2 4 9 6 7 7 6 7 7 7 7 8 9 10 11 10 10 10 10 11 11 11 9 7 6 6 7 8 8 8 9 10 9 9 10 10 8 8 10 11 12 12 13 13 14 14 14 15 15 15 16 14 15 15 16 16 16 16 15 16 17 15 14 14 16 14 14 17
4 3 5 8 7 8 8 10 10 11 1 3 5 5 7 6 6 5 3 5 7 5 3 5 8 8 7 8 8 9 10 10 10 11 10 11 10 11 10 6 5 7 8 8 8 7 7 8 9 9 10 9 10 9 8 9 11 11 11 13 15 14 14 14 15 16 16 16 16 17 18 18 18 17 15 16 17 17 18 17 16 17 15 17 17 19
2 8 8 9 5 10 9 8 6 4 6 6 6 5 3 7 8 6 2 6 5 4 5 5 6 6 6 8 9 10 10 11 11 11 11 11 10 9 5 5 7 7 8 7 7 7 6 8 8 10 10 9 9 8 8 9 12 13 14 16 14 14 13 13 13 15 15 15 16 17 17 16 18 17 16 17 17 17 19 20 18 17 16 16 15 17
8 11 9 11 4 9 8 10 6 7 1 5 7 8 9 9 7 8 8 8 9 9 7 7 8 8 7 8 9 10 11 11 12 11 11 10 7 4 5 6 6 7 8 8 7 6 5 8 10 11 12 10 9 10 8 8 11 14 16 15 12 13 12 13 15 15 16 16 17 17 16 17 16 16 16 16 15 17 17 18 16 16 16 15 17 16
7 11 9 10 11 12 14 14 12 13 13 9 9 9 12 14 13 11 11 10 9 8 7 8 9 8 8 7 8 8 9 11 11 9 7 6 5 6 5 6 6 7 7 6 5 7 7 8 8 10 12 13 9 10 9 8 8 13 15 14 12 13 13 14 16 16 17 17 16 16 16 17 18 16 15 16 14 15 15 16 15 15 15 14 15 16
14 15 9 8 8 10 10 9 12 16 16 14 15 13 11 11 11 11 11 11 11 9 9 8 7 8 7 6 7 9 9 8 8 6 6 6 6 6 6 7 7 6 6 5 7 7 7 7 9 11 12 13 10 8 8 9 9 10 13 14 13 14 14 14 15 19 19 16 17 16 15 17 15 15 15 14 13 13 13 14 14 14 15 14 15 16
10 13 14 14 15 13 13 13 16 15 16 15 13 12 13 14 14 14 11 9 9 8 6 5 3 5 4 5 7 8 7 5 5 6 5 5 5 6 6 6 6 6 6 6 6 5 5 7 10 12 13 12 10 9 9 9 10 11 12 12 13 13 14 16 18 17 18 18 16 16 15 15 19 19 15 15 13 15 13 13 14 14 15 14 14 15
8 3 6 6 12 13 15 17 17 17 18 18 17 15 14 13 13 13 13 12 12 8 4 4 4 4 4 5 1 2 4 5 5 5 5 5 5 5 5 5 6 5 6 7 6 5 7 9 10 11 11 12 11 11 11 11 11 11 11 13 13 14 16 17 18 17 19 18 16 15 14 14 15 15 15 15 15 13 14 14 13 16 17 15 14 16
11 16 13 10 13 14 12 13 13 11 10 11 13 12 12 13 13 13 11 10 7 6 5 5 5 4 3 2 2 3 3 4 4 3 4 4 5 5 6 6 6 6 7 7 7 7 8 8 10 12 12 12 11 11 12 12 11 11 13 14 13 14 15 17 18 18 17 15 15 15 14 14 14 14 15 15 15 17 14 18 25 20 18 19 23 31
14 17 11 12 12 11 13 15 13 13 15 15 16 14 13 11 10 10 9 9 8 5 4 5 5 5 5 5 3 3 3 4 4 3 3 4 4 4 5 6 6 8 9 8 9 8 7 9 11 12 12 11 10 11 12 13 14 15 14 12 13 13 15 17 17 16 15 15 14 15 15 15 15 15 14 15 16 15 17 16 14 24 29 30 29 30
Wind_Direction
166 209 195 210 236 247 251 232 242 264 277 286 288 277 276 277 277 276 275 286 303 341 283 293 295 297 298 292 289 279 274 277 278 287 281 272 280 293 9 10 353 10 29 36 46 42 33 27 22 23 20 16 20 18 17 20 19 21 13 111 219 165 192 196 194 198 199 204 210 216 219 221 212 212 210 209 212 212 210 200 194 181 179 174 175 178
203 227 227 231 248 259 273 304 299 279 277 280 281 279 276 273 277 274 288 297 314 314 290 291 294 301 304 296 283 277 279 276 283 277 267 275 305 354 13 358 30 46 58 52 45 35 33 27 23 22 21 19 20 18 18 19 17 15 10 7 24 145 174 198 202 201 206 217 220 223 227 229 230 216 211 218 214 217 214 205 195 187 181 176 175 177
207 223 229 236 247 260 273 280 272 274 277 272 269 275 281 275 277 286 278 285 20 301 283 305 304 297 287 280 281 287 284 278 272 260 275 312 350 4 31 44 60 61 58 48 37 31 28 26 24 24 20 20 18 13 19 18 22 24 23 26 11 33 28 196 212 207 210 222 237 246 264 254 245 243 248 238 234 214 213 203 197 197 186 184 182 183
247 233 232 241 251 260 260 253 263 267 259 260 260 260 262 277 287 297 301 112 235 245 294 308 299 286 268 266 270 279 277 274 256 277 338 33 35 56 56 61 68 61 50 42 33 25 20 23 24 22 19 14 12 13 15 19 22 26 24 19 14 16 19 360 316 271 269 248 222 209 265 7 256 355 75 175 200 193 195 206 196 199 200 195 194 191
250 279 72 249 252 249 257 262 260 258 263 249 246 257 269 270 273 284 297 310 313 286 272 294 281 292 288 219 186 178 213 254 292 54 66 69 70 80 76 65 57 55 48 42 33 24 19 20 22 20 18 15 17 15 16 16 21 28 27 22 19 27 24 13 13 350 299 27 148 151 111 98 197 117 192 182 218 209 207 214 209 211 204 202 200 195
261 267 121 225 218 242 247 256 249 252 267 270 255 251 259 274 285 287 300 315 306 291 101 336 325 302 10 280 284 301 294 272 77 78 72 67 66 64 62 59 58 57 51 49 38 31 25 23 22 22 22 23 19 16 11 11 20 32 34 28 28 33 34 18 15 359 325 320 289 252 243 240 229 243 228 234 236 222 218 220 219 213 206 204 204 202
293 67 137 229 236 235 236 253 257 251 260 267 263 15 280 282 289 292 293 313 291 300 97 70 299 298 259 279 278 274 262 269 84 81 78 79 71 63 57 53 47 47 54 48 45 36 31 24 23 24 24 24 22 13 4 4 18 34 40 35 33 35 34 25 13 13 355 343 326 311 300 305 304 302 291 288 272 254 244 230 220 212 203 207 208 210
201 229 128 244 234 230 241 244 246 225 247 262 43 333 330 292 281 295 310 278 272 288 277 237 219 272 302 293 165 224 259 108 89 83 83 81 83 81 78 63 50 49 49 52 43 36 33 30 28 26 23 24 21 10 5 13 21 34 39 37 33 34 33 27 19 19 15 355 2 352 331 313 307 308 313 323 328 308 279 257 223 217 210 205 212 217
193 156 196 189 202 223 230 252 44 198 222 349 20 9 349 337 322 319 286 281 289 300 295 176 211 263 264 333 160 263 276 163 96 102 99 87 78 77 74 70 64 55 54 53 47 36 31 30 29 27 28 25 23 19 18 20 28 37 39 37 34 34 32 26 24 20 21 19 4 358 353 344 335 326 316 313 314 308 287 256 237 226 228 215 215 219
104 67 197 207 201 232 229 56 16 176 244 92 112 97 192 258 229 266 272 279 283 278 272 216 186 262 286 293 221 145 253 165 114 115 110 97 91 81 76 73 71 65 60 59 59 52 40 32 30 27 29 29 24 19 16 26 36 41 39 37 34 33 31 25 25 24 22 21 16 11 12 358 344 339 332 330 324 315 303 279 253 243 235 234 219 219
259 162 27 253 224 266 74 52 30 7 19 70 288 298 264 241 249 237 247 262 272 255 264 249 191 218 290 310 191 217 66 127 125 119 117 108 95 78 66 64 57 58 60 52 49 48 49 40 33 24 27 25 24 22 22 28 34 37 37 34 36 33 31 27 26 24 23 22 19 18 9 2 352 348 336 327 323 320 313 301 291 267 252 239 232 218
219 181 196 229 246 99 136 110 75 93 79 214 272 288 309 275 215 255 238 226 264 277 328 49 185 204 248 172 157 91 119 58 71 139 131 117 103 89 79 65 51 44 50 54 44 35 30 31 32 32 29 26 26 28 29 30 31 34 33 33 35 33 31 29 26 27 27 22 20 15 10 5 2 353 347 338 329 326 318 310 298 292 276 259 244 228
217 222 213 166 205 204 181 244 156 159 166 219 235 253 271 289 281 264 207 232 227 267 115 80 111 238 234 242 262 219 121 118 127 128 127 120 111 96 77 66 64 59 52 51 51 39 29 28 26 26 22 22 28 31 30 29 29 29 32 32 36 36 34 34 32 32 28 27 21 14 10 6 359 356 352 340 336 331 321 318 313 306 297 287 266 248
277 93 181 187 121 208 198 209 182 214 186 194 214 222 249 275 266 270 276 278 275 122 111 95 58 262 272 274 235 235 92 89 88 87 101 102 102 94 87 78 60 55 56 48 46 48 42 31 27 23 21 26 30 32 32 29 30 27 28 28 32 35 34 36 38 36 37 35 28 20 15 8 2 2 354 349 344 341 333 328 321 316 309 303 295 285
293 275 198 168 215 152 198 222 256 308 165 201 210 199 231 256 266 278 281 271 272 290 10 245 289 234 288 352 60 77 95 94 92 87 82 83 88 89 90 82 69 61 52 51 43 38 35 31 26 24 26 29 33 32 31 29 27 29 30 28 29 32 29 31 32 33 37 37 35 32 25 19 7 3 359 355 352 341 337 331 325 319 314 307 304 300
252 261 32 120 360 166 190 223 341 311 280 205 216 262 267 243 244 257 276 282 296 302 283 216 209 305 296 105 106 102 95 88 84 85 89 88 86 89 81 69 63 58 54 47 48 42 35 32 25 27 33 38 35 32 29 26 23 22 21 22 27 30 28 27 26 29 28 29 28 30 30 26 21 15 7 3 358 347 338 330 323 316 312 309 308 306
261 268 85 237 96 253 194 19 215 294 257 94 134 214 253 15 293 282 272 262 275 272 261 268 267 262 265 231 132 101 91 90 95 93 89 87 87 83 77 71 67 62 53 48 43 35 28 29 29 29 31 31 32 32 28 23 20 22 18 18 21 23 24 23 22 24 24 23 27 25 23 20 18 19 18 11 1 351 344 335 328 321 318 314 311 307
265 272 150 173 246 137 18 352 323 331 332 102 220 215 356 242 348 267 273 271 258 257 262 249 267 272 269 275 114 121 107 115 104 96 96 94 92 83 79 77 73 69 62 58 50 34 27 27 26 27 26 26 24 23 20 16 12 14 19 17 24 22 21 17 15 15 14 13 16 16 16 15 15 13 14 15 10 3 354 349 341 332 328 325 318 308
12 278 262 291 318 95 84 271 257 173 356 251 286 358 296 251 252 209 230 248 253 253 263 240 254 256 261 268 224 170 143 136 117 114 113 103 96 95 93 87 80 69 60 45 36 29 26 24 23 19 18 16 18 14 14 6 9 20 24 25 28 25 20 15 12 8 16 17 16 13 11 8 7 5 6 7 11 11 7 4 353 339 328 316 308 302
150 267 275 49 305 110 140 190 253 169 29 120 334 265 208 337 254 267 262 303 271 268 270 253 242 258 246 280 321 32 139 135 134 129 110 99 99 95 91 81 68 54 47 32 29 28 22 24 16 10 3 4 4 7 360 350 353 14 16 16 22 23 19 16 17 9 16 14 13 13 13 12 8 3 7 7 11 10 7 2 355 348 343 329 315 306
277 296 265 178 123 293 255 182 235 253 233 192 211 238 200 219 33 310 349 247 248 265 255 276 264 259 274 9 79 107 114 131 140 135 127 114 105 94 79 70 60 49 34 36 30 27 23 357 354 330 317 284 270 268 282 298 359 11 9 14 11 14 5 11 9 9 14 13 12 12 13 8 3 5 8 8 14 12 4 360 354 350 339 326 324 320
256 214 257 275 274 251 266 267 306 284 279 273 251 246 248 257 256 257 258 204 232 236 254 256 261 256 286 18 58 90 90 94 105 121 122 120 105 95 78 60 55 42 33 30 22 9 1 323 294 245 259 261 257 275 326 331 354 1 15 15 357 5 15 7 5 7 3 5 2 7 12 11 8 8 5 6 3 6 357 355 352 348 339 339 327 330
278 275 264 262 252 260 275 282 285 233 252 277 272 270 267 270 226 250 267 256 268 243 293 260 277 252 82 356 64 78 81 84 89 104 110 117 116 103 96 83 67 89 24 313 309 289 253 285 272 275 304 322 343 351 357 2 6 5 7 10 11 11 10 7 0 359 357 357 1 3 2 5 9 9 10 5 359 360 352 350 347 346 343 342 340 338
134 257 258 260 263 268 276 276 94 322 177 253 233 253 259 253 272 281 285 326 285 307 282 262 252 265 55 34 82 85 92 88 100 123 134 134 137 138 140 139 114 95 102 103 79 303 233 222 248 249 11 2 9 6 5 7 10 9 10 11 9 8 5 2 357 354 349 350 351 353 358 3 1 3 4 4 356 354 348 340 339 339 340 338 337 338
295 247 262 284 289 285 273 249 181 55 13 328 327 3 6 321 311 296 270 260 266 225 252 262 262 269 93 132 129 146 150 156 156 155 152 151 156 160 151 144 111 54 33 24 26 15 14 14 8 11 12 11 8 7 2 2 4 3 4 9 7 5 2 358 351 351 345 344 344 342 347 350 355 357 355 351 344 343 340 339 341 339 336 337 333 330
257 279 298 287 284 278 267 262 271 263 108 64 288 277 267 269 263 311 281 283 268 173 223 243 273 265 124 228 200 185 188 163 151 155 161 175 174 174 173 162 114 75 21 359 3 352 357 353 352 356 358 358 1 3 359 358 358 355 355 356 358 355 355 354 351 347 344 340 340 337 337 339 339 343 349 347 344 336 333 330 330 334 332 333 327 323
277 267 253 257 261 263 267 278 298 311 284 274 272 267 268 266 266 266 273 263 256 285 283 264 269 276 282 280 278 281 154 205 179 180 185 177 173 174 175 189 204 203 226 289 307 314 314 323 333 336 340 342 343 346 348 348 351 351 351 348 348 348 345 345 345 344 342 336 335 332 331 333 332 329 330 332 334 332 329 328 326 322 322 321 316 313
261 267 253 252 247 256 266 271 276 279 278 278 279 276 277 271 266 261 252 257 286 300 275 252 260 270 270 276 279 288 256 239 201 181 184 179 175 188 190 198 221 228 230 230 245 246 268 274 285 295 307 316 318 325 328 334 335 340 338 338 335 335 336 333 337 334 333 332 330 328 329 328 323 319 317 322 322 320 318 320 322 320 315 312 308 304
275 271 277 280 275 275 277 278 278 279 278 280 277 276 273 274 271 263 259 269 274 257 269 283 286 284 284 282 287 285 297 343 154 147 149 131 146 181 206 221 229 229 232 236 248 250 255 266 275 287 292 297 306 308 315 316 317 318 324 323 326 325 331 331 330 329 327 328 326 328 328 324 320 314 313 319 317 313 312 313 314 313 311 309 307 303
258 263 266 266 273 272 272 273 275 275 277 274 270 268 269 268 266 266 274 276 269 268 271 273 274 273 278 275 277 290 81 94 110 111 127 176 206 210 237 245 251 247 247 258 274 280 280 276 283 279 284 287 291 301 303 307 305 309 309 309 312 317 321 333 330 328 326 323 322 322 325 323 319 315 315 316 312 315 311 307 307 309 314 313 307 304
238 270 79 52 287 264 260 261 268 275 282 279 276 273 268 264 264 269 275 272 276 271 263 263 263 266 267 290 85 82 75 101 91 172 197 223 230 253 259 265 262 259 257 263 277 287 288 284 284 285 284 288 292 293 297 295 298 297 294 293 299 303 313 324 323 320 321 318 317 318 316 317 312 310 310 309 312 313 314 310 306 306 304 303 304 309
273 268 324 294 271 269 261 271 277 287 282 274 273 265 258 261 269 265 261 264 266 266 263 265 265 270 283 96 59 105 108 105 269 302 293 293 282 293 289 288 289 284 275 271 278 282 284 283 280 282 282 284 284 284 284 285 286 288 284 289 294 297 304 307 304 306 304 305 309 309 311 309 310 306 299 299 300 305 310 306 300 298 302 306 305 305
244 254 276 280 274 255 262 272 282 318 317 270 241 241 252 257 252 258 256 253 249 259 265 261 270 339 91 164 202 239 110 334 326 291 323 311 298 288 287 284 289 289 283 276 275 280 276 277 280 279 279 275 271 270 268 271 274 273 278 286 291 294 293 292 294 296 297 298 299 299 299 301 302 301 298 292 290 294 301 301 295 291 292 294 299 302
223 247 259 263 257 266 278 303 79 253 252 244 306 145 233 254 264 266 265 263 263 259 281 325 140 158 179 109 105 56 344 351 327 316 304 282 284 291 283 289 290 292 290 282 275 279 282 278 281 281 280 278 274 269 270 265 268 271 274 277 282 287 283 282 281 282 284 287 286 285 287 289 289 288 288 288 294 296 295 297 291 287 287 290 295 291
249 247 258 254 261 267 276 129 255 231 243 23 129 247 250 280 269 258 263 266 273 282 294 274 279 228 152 105 87 2 336 314 309 299 294 287 266 261 280 297 304 307 306 298 288 281 279 284 287 291 294 298 303 304 296 294 294 300 305 309 309 308 299 290 284 275 273 278 279 279 279 279 278 278 278 277 281 288 290 293 295 286 278 282 286 287
237 240 253 253 253 267 255 246 249 247 116 240 238 209 222 234 251 266 267 261 259 257 259 265 267 259 189 76 16 358 316 305 299 287 283 278 274 269 284 299 313 320 316 314 306 297 290 290 294 296 299 310 320 317 322 318 322 320 315 317 307 299 292 287 285 283 278 279 277 275 273 273 277 276 275 268 266 277 285 291 291 287 282 284 279 277
234 245 243 263 238 254 249 248 249 297 289 267 265 257 242 245 267 263 289 303 44 249 262 233 243 171 128 6 329 322 304 297 288 281 273 275 257 263 295 310 315 317 313 309 309 305 303 299 295 300 319 336 338 338 333 332 331 322 314 305 296 294 290 288 284 282 280 284 283 284 283 280 279 278 276 265 267 275 280 284 287 282 277 288 287 284
234 233 242 255 251 247 260 266 268 266 264 273 260 58 43 53 31 342 319 273 225 235 246 185 218 138 42 318 305 304 302 277 286 288 300 345 85 243 296 306 317 317 320 318 316 313 309 313 338 3 357 339 335 338 337 332 324 314 309 305 303 301 296 294 292 292 292 290 290 290 285 281 282 281 278 272 271 277 282 283 283 277 279 281 284 286
278 258 246 242 260 261 254 256 256 257 260 106 246 51 57 70 39 350 288 281 234 161 83 97 77 51 259 266 279 284 249 271 273 287 307 7 331 319 310 309 313 314 315 320 321 330 5 7 354 340 340 338 332 331 334 333 326 318 313 311 305 302 300 301 300 301 300 297 295 292 291 291 291 288 287 281 277 283 286 284 281 274 278 276 276 275
171 219 208 237 242 237 246 248 253 256 273 57 122 122 125 102 49 352 290 287 108 178 147 114 2 307 279 272 274 272 258 270 280 293 326 316 316 310 308 310 312 315 316 321 355 21 348 346 347 334 333 332 326 334 339 337 329 318 316 312 311 305 303 304 305 305 304 300 294 292 292 295 295 292 290 287 286 288 286 284 281 276 276 276 274 274
174 216 210 227 231 239 239 251 264 265 269 256 257 127 144 127 62 272 256 312 177 185 181 199 243 268 276 280 277 277 268 279 291 297 301 306 303 301 304 307 304 312 334 7 21 358 340 329 326 324 325 326 335 342 344 340 330 318 316 313 309 307 308 309 308 304 300 296 293 292 291 292 294 297 294 292 291 290 286 281 277 279 279 278 277 273
217 184 252 237 240 243 249 254 250 266 252 248 281 199 145 153 250 257 316 111 161 188 210 224 244 260 268 264 273 277 285 286 288 290 288 292 297 301 302 303 321 354 8 353 350 340 325 323 323 325 331 341 350 343 338 340 325 317 315 310 303 307 308 308 308 307 303 299 297 300 302 303 300 296 293 291 289 286 282 279 276 275 278 274 272 271
246 234 229 235 243 243 242 254 261 262 29 124 118 85 206 229 253 284 135 179 170 217 244 250 251 262 263 276 280 287 285 284 282 283 288 288 294 297 307 350 357 338 334 334 328 337 346 329 326 329 335 338 336 335 335 339 319 308 307 300 305 311 311 315 313 310 307 304 305 306 305 302 301 299 299 295 292 289 287 286 284 280 278 276 274 271
247 266 258 255 235 260 244 236 227 263 267 168 172 238 230 231 246 272 271 273 260 292 289 285 268 265 273 279 286 284 282 284 282 280 285 290 293 305 338 340 331 327 322 327 337 350 13 334 330 324 323 331 328 332 335 330 316 310 308 304 313 314 313 312 311 309 305 303 302 303 302 302 301 299 297 295 293 290 286 285 283 280 277 276 273 274
189 223 225 258 222 259 263 263 278 314 280 180 209 238 256 277 272 263 276 280 286 284 285 270 277 282 282 282 277 276 281 280 283 285 288 293 306 324 321 317 320 320 324 332 346 12 10 343 326 323 316 321 327 320 321 322 314 307 301 303 313 312 313 312 310 307 301 300 300 298 298 298 295 295 293 289 288 285 283 279 277 277 275 272 270 268
217 242 234 249 256 255 265 272 281 275 260 236 216 225 250 258 262 269 266 267 261 268 274 278 283 284 282 275 266 264 262 272 280 284 289 303 314 310 309 309 315 325 333 351 346 2 351 333 320 312 308 311 324 316 316 312 308 301 298 307 310 309 308 308 305 300 297 297 293 293 295 294 292 287 284 285 284 280 279 281 281 278 277 274 271 270
238 243 244 240 247 264 257 249 252 256 259 258 257 248 240 239 254 263 268 266 271 271 272 269 271 276 279 277 260 262 267 272 277 283 296 302 303 306 310 310 317 335 347 343 342 350 335 331 315 311 311 308 317 314 310 310 301 294 299 305 305 305 303 298 298 297 296 294 295 294 295 292 292 292 289 286 285 281 282 282 281 280 279 277 277 274
249 238 248 240 248 241 256 256 257 256 262 263 264 267 264 262 262 263 260 260 264 269 258 254 254 262 255 253 249 254 260 264 269 281 290 296 300 306 308 313 325 336 335 337 329 339 323 314 309 308 311 308 312 310 304 298 296 297 300 299 301 301 300 298 296 295 295 295 294 293 293 290 291 290 289 288 286 286 285 281 278 278 276 278 279 279
264 211 224 208 244 254 260 258 260 264 266 265 262 258 259 261 262 261 265 268 271 263 182 163 188 241 233 250 214 244 260 260 269 280 287 294 296 298 312 328 327 325 325 321 317 328 318 312 305 302 304 301 304 303 300 296 295 300 302 303 304 304 302 300 298 298 298 297 294 291 291 289 289 289 288 289 286 280 279 280 280 277 276 268 266 267
252 249 245 254 258 254 243 242 243 257 264 262 254 251 253 258 262 258 258 257 235 231 202 183 175 177 194 229 233 236 241 263 264 277 280 288 295 310 316 321 322 318 313 312 312 313 307 303 301 301 300 297 300 298 299 298 296 302 305 304 303 302 299 301 302 299 295 294 293 292 291 290 290 290 288 287 287 287 280 273 274 276 277 279 275 274
237 243 236 243 238 247 239 241 239 244 258 266 276 278 274 271 248 238 238 247 249 207 163 187 193 181 189 195 170 198 234 255 273 309 296 289 297 313 317 322 316 311 308 311 309 307 307 304 302 298 294 296 301 302 302 302 304 304 302 299 297 300 301 301 299 297 295 294 292 292 293 292 290 287 285 286 286 285 286 287 279 275 277 278 279 278